�������l�o���
Date,Time,MP-1(��Sv/h),MP-2(��Sv/h),MP-3(��Sv/h),MP-4(��Sv/h),MP-5(��Sv/h),MP-6(��Sv/h),MP-7(��Sv/h),MP-8(��Sv/h),����,����(m/s),���J
2021/04/09,00:00,0.627,0.922,0.586,1.140,0.811,0.373,0.652,0.614,���k��,7.7,��
2021/04/09,00:10,0.625,0.925,0.584,1.141,0.813,0.371,0.650,0.613,���k��,8.3,��
2021/04/09,00:20,0.625,0.923,0.585,1.139,0.811,0.372,0.651,0.614,���k��,8.5,��
2021/04/09,00:30,0.627,0.924,0.584,1.141,0.811,0.372,0.653,0.615,���k��,7.2,��
2021/04/09,00:40,0.627,0.924,0.585,1.142,0.813,0.372,0.653,0.614,�k��,6.0,��
2021/04/09,00:50,0.625,0.921,0.584,1.139,0.812,0.371,0.654,0.614,�k��,5.4,��
2021/04/09,01:00,0.626,0.924,0.584,1.142,0.812,0.372,0.651,0.614,�k��,5.0,��
2021/04/09,01:10,0.625,0.924,0.585,1.140,0.811,0.372,0.653,0.614,�k��,4.9,��
2021/04/09,01:20,0.626,0.923,0.585,1.140,0.812,0.372,0.654,0.614,�k��,5.0,��
2021/04/09,01:30,0.625,0.922,0.584,1.143,0.812,0.371,0.652,0.611,�k��,4.6,��
2021/04/09,01:40,0.626,0.922,0.584,1.143,0.810,0.370,0.652,0.612,�k�k��,4.7,��
2021/04/09,01:50,0.626,0.923,0.584,1.140,0.811,0.371,0.653,0.613,�k�k��,4.3,��
2021/04/09,02:00,0.626,0.920,0.583,1.141,0.811,0.371,0.652,0.613,�k�k��,4.2,��
2021/04/09,02:10,0.623,0.922,0.583,1.140,0.811,0.372,0.653,0.615,�k��,3.6,��
2021/04/09,02:20,0.626,0.921,0.583,1.141,0.811,0.371,0.652,0.613,�k��,5.5,��
2021/04/09,02:30,0.625,0.923,0.584,1.139,0.810,0.371,0.651,0.613,�k��,6.9,��
2021/04/09,02:40,0.624,0.921,0.582,1.141,0.812,0.370,0.650,0.614,�k�k��,7.1,��
2021/04/09,02:50,0.625,0.922,0.584,1.142,0.809,0.369,0.651,0.614,�k�k��,7.0,��
2021/04/09,03:00,0.623,0.922,0.583,1.139,0.812,0.371,0.651,0.611,�k��,6.8,��
2021/04/09,03:10,0.625,0.921,0.583,1.140,0.809,0.368,0.651,0.613,�k��,6.1,��
2021/04/09,03:20,0.624,0.921,0.584,1.140,0.809,0.371,0.652,0.615,�k��,7.0,��
2021/04/09,03:30,0.625,0.923,0.583,1.139,0.813,0.371,0.652,0.611,���k��,7.3,��
2021/04/09,03:40,0.626,0.922,0.583,1.139,0.811,0.371,0.651,0.612,���k��,8.2,��
2021/04/09,03:50,0.625,0.922,0.584,1.140,0.812,0.371,0.652,0.613,���k��,8.9,��
2021/04/09,04:00,0.625,0.923,0.584,1.140,0.811,0.370,0.652,0.613,���k��,9.7,��
2021/04/09,04:10,0.624,0.922,0.584,1.140,0.810,0.370,0.654,0.611,���k��,8.3,��
2021/04/09,04:20,0.624,0.922,0.584,1.140,0.812,0.371,0.654,0.612,���k��,5.2,��
2021/04/09,04:30,0.625,0.920,0.584,1.140,0.812,0.371,0.653,0.612,���k��,5.7,��
2021/04/09,04:40,0.624,0.923,0.582,1.141,0.811,0.369,0.652,0.612,�k��,7.1,��
2021/04/09,04:50,0.625,0.920,0.583,1.142,0.810,0.372,0.651,0.611,�k��,6.0,��
2021/04/09,05:00,0.624,0.921,0.584,1.142,0.811,0.371,0.651,0.613,�k��,5.6,��
2021/04/09,05:10,0.625,0.921,0.582,1.142,0.812,0.372,0.652,0.611,���k��,6.6,��
2021/04/09,05:20,0.624,0.923,0.583,1.140,0.811,0.371,0.653,0.613,�k��,6.2,��
2021/04/09,05:30,0.622,0.923,0.585,1.142,0.812,0.372,0.651,0.612,�k��,5.7,��
2021/04/09,05:40,0.622,0.922,0.582,1.140,0.812,0.369,0.651,0.613,���k��,5.4,��
2021/04/09,05:50,0.623,0.920,0.582,1.141,0.810,0.371,0.653,0.612,��,5.3,��
2021/04/09,06:00,0.624,0.923,0.584,1.141,0.810,0.372,0.651,0.613,��,5.8,��
2021/04/09,06:10,0.625,0.922,0.581,1.141,0.810,0.370,0.652,0.613,���k��,5.3,��
2021/04/09,06:20,0.626,0.922,0.584,1.141,0.811,0.370,0.652,0.614,�k��,2.5,��
2021/04/09,06:30,0.624,0.923,0.582,1.143,0.811,0.370,0.652,0.614,�k�k��,0.6,��
2021/04/09,06:40,0.625,0.921,0.585,1.141,0.813,0.372,0.652,0.612,�k��,1.2,��
2021/04/09,06:50,0.625,0.923,0.584,1.142,0.810,0.372,0.655,0.614,�k�k��,2.3,��
2021/04/09,07:00,0.625,0.924,0.583,1.140,0.811,0.369,0.653,0.612,�k��,1.9,��
2021/04/09,07:10,0.625,0.922,0.584,1.141,0.809,0.371,0.652,0.613,�k,1.7,��
2021/04/09,07:20,0.626,0.924,0.583,1.143,0.813,0.373,0.653,0.614,�k�k��,4.2,��
2021/04/09,07:30,0.626,0.923,0.585,1.142,0.812,0.370,0.653,0.613,�k��,3.7,��
2021/04/09,07:40,0.627,0.922,0.583,1.143,0.812,0.370,0.653,0.613,��,3.4,��
2021/04/09,07:50,0.626,0.926,0.584,1.142,0.813,0.370,0.652,0.613,���쓌,2.2,��
2021/04/09,08:00,0.627,0.922,0.584,1.142,0.812,0.369,0.654,0.615,�쓌,3.5,��
2021/04/09,08:10,0.627,0.926,0.583,1.143,0.811,0.371,0.653,0.613,���쐼,1.2,��
2021/04/09,08:20,0.627,0.923,0.584,1.142,0.813,0.369,0.654,0.615,���k��,4.7,��
2021/04/09,08:30,0.626,0.922,0.588,1.142,0.814,0.371,0.654,0.615,���k��,7.2,��
2021/04/09,08:40,0.629,0.925,0.584,1.143,0.812,0.368,0.651,0.615,��,6.7,��
2021/04/09,08:50,0.628,0.923,0.585,1.143,0.812,0.370,0.651,0.613,���k��,7.4,��
2021/04/09,09:00,0.628,0.922,0.583,1.143,0.815,0.370,0.649,0.613,�k��,2.8,��
2021/04/09,09:10,0.629,0.924,0.584,1.144,0.815,0.369,0.651,0.615,���k��,2.0,��
2021/04/09,09:20,0.627,0.921,0.586,1.143,0.816,0.369,0.650,0.612,���k��,7.2,��
2021/04/09,09:30,0.630,0.920,0.585,1.146,0.815,0.370,0.651,0.613,��,5.5,��
2021/04/09,09:40,0.628,0.923,0.584,1.143,0.815,0.371,0.651,0.611,��,7.0,��
2021/04/09,09:50,0.631,0.922,0.588,1.144,0.816,0.370,0.652,0.612,���k��,9.3,��
2021/04/09,10:00,0.629,0.924,0.586,1.146,0.818,0.370,0.652,0.611,���k��,8.4,��
2021/04/09,10:10,0.629,0.925,0.587,1.147,0.817,0.372,0.653,0.611,���k��,7.4,��
2021/04/09,10:20,0.630,0.929,0.588,1.145,0.816,0.368,0.651,0.610,�k,4.1,��
2021/04/09,10:30,0.629,0.925,0.587,1.145,0.817,0.370,0.651,0.612,�k�k��,5.5,��
2021/04/09,10:40,0.628,0.923,0.589,1.144,0.812,0.370,0.650,0.611,�k�k��,3.8,��
2021/04/09,10:50,0.627,0.926,0.587,1.145,0.815,0.369,0.652,0.611,�k,2.6,��
2021/04/09,11:00,0.629,0.924,0.588,1.145,0.818,0.369,0.651,0.610,��,1.9,��
2021/04/09,11:10,0.631,0.927,0.585,1.145,0.819,0.370,0.653,0.612,��,3.6,��
2021/04/09,11:20,0.630,0.928,0.588,1.146,0.818,0.371,0.651,0.611,���쐼,6.4,��
2021/04/09,11:30,0.631,0.927,0.587,1.146,0.819,0.370,0.652,0.613,���k��,8.2,��
2021/04/09,11:40,0.632,0.929,0.589,1.146,0.815,0.370,0.653,0.613,��,8.2,��
2021/04/09,11:50,0.630,0.933,0.588,1.148,0.817,0.370,0.653,0.610,�k,3.2,��
2021/04/09,12:00,0.630,0.931,0.588,1.146,0.817,0.369,0.653,0.611,��,2.3,��
2021/04/09,12:10,0.628,0.931,0.588,1.146,0.816,0.370,0.652,0.612,���k��,8.3,��
2021/04/09,12:20,0.629,0.931,0.587,1.147,0.817,0.370,0.653,0.612,��,8.9,��
2021/04/09,12:30,0.627,0.931,0.587,1.145,0.820,0.369,0.652,0.611,��,10.7,��
2021/04/09,12:40,0.629,0.931,0.586,1.147,0.818,0.371,0.653,0.609,��,8.7,��
2021/04/09,12:50,0.629,0.929,0.586,1.147,0.818,0.372,0.652,0.611,��,9.2,��
2021/04/09,13:00,0.630,0.930,0.586,1.146,0.818,0.371,0.652,0.611,��,10.2,��
2021/04/09,13:10,0.630,0.929,0.587,1.149,0.818,0.371,0.653,0.612,�k��,8.0,��
2021/04/09,13:20,0.628,0.930,0.586,1.146,0.820,0.371,0.651,0.613,�k�k��,6.5,��
2021/04/09,13:30,0.629,0.929,0.586,1.150,0.818,0.371,0.653,0.613,���k��,7.5,�L
2021/04/09,13:40,0.628,0.930,0.587,1.147,0.819,0.371,0.653,0.613,��,11.0,��
2021/04/09,13:50,0.628,0.932,0.587,1.150,0.819,0.371,0.653,0.612,��,8.7,��
2021/04/09,14:00,0.629,0.928,0.588,1.149,0.817,0.372,0.653,0.611,�k�k��,6.0,��
2021/04/09,14:10,0.629,0.930,0.588,1.148,0.820,0.372,0.652,0.610,�k�k��,4.2,��
2021/04/09,14:20,0.628,0.931,0.587,1.148,0.819,0.372,0.653,0.613,�k�k��,6.0,��
2021/04/09,14:30,0.629,0.929,0.588,1.147,0.819,0.372,0.652,0.612,�k��,6.8,��
2021/04/09,14:40,0.630,0.932,0.586,1.149,0.821,0.372,0.652,0.611,�k�k��,6.4,��
2021/04/09,14:50,0.630,0.934,0.588,1.147,0.818,0.372,0.652,0.613,�k��,5.3,��
2021/04/09,15:00,0.630,0.932,0.589,1.151,0.820,0.372,0.652,0.612,�k��,7.7,��
2021/04/09,15:10,0.632,0.931,0.590,1.149,0.819,0.371,0.652,0.612,�k��,7.2,�L
2021/04/09,15:20,0.631,0.933,0.588,1.149,0.819,0.371,0.652,0.612,�k��,7.3,��
2021/04/09,15:30,0.631,0.933,0.589,1.149,0.817,0.374,0.652,0.611,�k�k��,7.2,��
2021/04/09,15:40,0.632,0.932,0.589,1.149,0.820,0.370,0.650,0.610,�k�k��,10.9,��
2021/04/09,15:50,0.631,0.932,0.590,1.150,0.819,0.371,0.652,0.613,�k�k��,9.0,��
2021/04/09,16:00,0.629,0.935,0.590,1.149,0.819,0.374,0.652,0.612,�k�k��,8.3,��
2021/04/09,16:10,0.631,0.939,0.591,1.148,0.820,0.371,0.650,0.614,�k�k��,9.1,��
2021/04/09,16:20,0.632,0.938,0.587,1.153,0.819,0.370,0.653,0.612,�k�k��,8.0,��
2021/04/09,16:30,0.632,0.936,0.589,1.151,0.822,0.371,0.653,0.613,�k�k��,7.9,��
2021/04/09,16:40,0.632,0.938,0.589,1.149,0.821,0.371,0.652,0.615,�k�k��,9.6,��
2021/04/09,16:50,0.631,0.938,0.589,1.152,0.822,0.373,0.651,0.616,�k�k��,10.5,��
2021/04/09,17:00,0.633,0.936,0.587,1.150,0.820,0.371,0.651,0.615,�k��,9.3,��
2021/04/09,17:10,0.630,0.938,0.588,1.151,0.820,0.371,0.651,0.616,�k�k��,7.7,��
2021/04/09,17:20,0.631,0.937,0.590,1.152,0.820,0.370,0.651,0.615,�k�k��,6.4,��
2021/04/09,17:30,0.631,0.936,0.588,1.152,0.820,0.372,0.650,0.616,�k��,5.8,��
2021/04/09,17:40,0.630,0.934,0.587,1.150,0.818,0.372,0.651,0.616,�k��,5.2,��
2021/04/09,17:50,0.631,0.936,0.587,1.151,0.821,0.372,0.648,0.612,�k�k��,4.0,��
2021/04/09,18:00,0.630,0.933,0.587,1.149,0.822,0.371,0.652,0.614,�k�k��,5.3,��
2021/04/09,18:10,0.630,0.936,0.588,1.152,0.822,0.373,0.652,0.615,�k�k��,5.5,��
2021/04/09,18:20,0.629,0.936,0.588,1.149,0.820,0.372,0.653,0.613,�k��,6.3,��
2021/04/09,18:30,0.631,0.938,0.589,1.150,0.821,0.372,0.655,0.614,�k�k��,6.5,��
2021/04/09,18:40,0.629,0.936,0.589,1.148,0.823,0.371,0.653,0.613,�k�k��,5.7,��
2021/04/09,18:50,0.630,0.934,0.588,1.151,0.821,0.369,0.654,0.614,�k�k��,8.8,��
2021/04/09,19:00,0.630,0.935,0.588,1.148,0.823,0.371,0.653,0.612,�k��,8.4,��
2021/04/09,19:10,0.629,0.934,0.588,1.153,0.823,0.371,0.654,0.614,�k�k��,7.3,��
2021/04/09,19:20,0.629,0.935,0.588,1.150,0.823,0.371,0.653,0.615,�k��,7.6,��
2021/04/09,19:30,0.630,0.936,0.589,1.151,0.822,0.370,0.652,0.614,�k��,7.0,��
2021/04/09,19:40,0.629,0.935,0.588,1.149,0.821,0.371,0.653,0.614,�k��,7.7,��
2021/04/09,19:50,0.631,0.936,0.588,1.152,0.820,0.370,0.654,0.614,�k��,7.4,��
2021/04/09,20:00,0.629,0.936,0.588,1.149,0.821,0.370,0.654,0.617,�k��,7.3,��
2021/04/09,20:10,0.629,0.936,0.588,1.152,0.821,0.371,0.653,0.614,�k��,5.7,��
2021/04/09,20:20,0.630,0.935,0.588,1.148,0.822,0.370,0.652,0.615,�k��,7.0,��
2021/04/09,20:30,0.630,0.936,0.587,1.150,0.822,0.370,0.654,0.615,�k��,5.6,��
2021/04/09,20:40,0.631,0.936,0.587,1.149,0.822,0.371,0.652,0.614,�k��,6.5,��
2021/04/09,20:50,0.629,0.936,0.587,1.152,0.822,0.371,0.653,0.616,�k��,8.0,��
2021/04/09,21:00,0.629,0.937,0.587,1.150,0.820,0.372,0.654,0.614,�k��,7.2,��
2021/04/09,21:10,0.629,0.937,0.587,1.151,0.822,0.371,0.653,0.615,�k��,7.5,��
2021/04/09,21:20,0.628,0.937,0.587,1.151,0.824,0.371,0.652,0.614,�k��,6.7,��
2021/04/09,21:30,0.629,0.937,0.588,1.150,0.822,0.371,0.654,0.613,�k��,6.0,��
2021/04/09,21:40,0.628,0.937,0.588,1.151,0.821,0.371,0.653,0.615,�k��,5.2,��
2021/04/09,21:50,0.627,0.936,0.586,1.153,0.823,0.371,0.653,0.614,�k��,8.4,��
2021/04/09,22:00,0.630,0.935,0.588,1.151,0.823,0.370,0.653,0.612,�k�k��,8.5,��
2021/04/09,22:10,0.629,0.936,0.587,1.150,0.820,0.371,0.654,0.616,�k��,11.1,��
2021/04/09,22:20,0.631,0.935,0.587,1.151,0.821,0.371,0.653,0.614,�k��,11.0,��
2021/04/09,22:30,0.630,0.935,0.587,1.152,0.824,0.371,0.653,0.614,�k��,10.5,��
2021/04/09,22:40,0.630,0.936,0.584,1.150,0.822,0.369,0.654,0.614,�k��,12.0,��
2021/04/09,22:50,0.628,0.938,0.585,1.150,0.822,0.370,0.654,0.615,�k��,12.4,��
2021/04/09,23:00,0.629,0.936,0.585,1.151,0.821,0.370,0.653,0.614,�k��,12.4,��
2021/04/09,23:10,0.629,0.936,0.586,1.151,0.820,0.369,0.653,0.614,�k��,10.2,��
2021/04/09,23:20,0.628,0.937,0.584,1.151,0.822,0.368,0.655,0.615,�k��,10.6,��
2021/04/09,23:30,0.630,0.936,0.586,1.149,0.823,0.369,0.655,0.615,�k��,14.2,��
2021/04/09,23:40,0.628,0.934,0.584,1.152,0.823,0.369,0.653,0.614,�k��,8.8,��
2021/04/09,23:50,0.628,0.937,0.585,1.151,0.824,0.368,0.653,0.613,�k�k��,1.1,��
